[[{"header":{"parameterUnit":"m.s-1","parameterCategory":1,"la1":30.2991,"la2":30.254,"lo1":-89.0895,"lo2":-89.0444,"dy":0.0017,"dx":0.0017,"nx":28,"ny":28,"refTime":"2024-12-13T09:00:00:Z","depth":0,"parameterNumber":2,"parameterNumberName":"U-component_of_WINDS"},"data":[0,0,0,0,0,0,0,0,0,0,0,0,0,0,0,0,0,0,0,0,0,0,0,0,0,0,0,0,0,0,0,0,0,0,0,0,0,0,0,0,0,0,0,0,0,0,0,0,0,0,0,0,0,0,0,0,0,0,-6.4402,-6.4402,0,-6.4418,-6.4418,-6.4418,-6.4238,-6.4233,-6.4228,-6.4223,-6.4241,-6.4246,-6.4251,0,0,0,0,0,0,0,0,0,0,0,0,0,-6.4217,-6.4221,-6.4402,-6.4402,-6.4402,-6.4418,-6.4418,-6.4418,-6.4238,-6.4232,-6.4226,-6.4221,-6.4239,-6.4245,-6.4252,0,0,0,0,0,0,0,0,0,0,0,0,0,-6.4272,-6.4223,-6.4402,-6.4314,-6.4307,-6.4417,-6.4418,-6.4418,-6.424,-6.4232,-6.4225,-6.4218,-6.4237,-6.4245,-6.4252,-6.4448,0,0,-6.4276,-6.4279,0,0,0,0,0,0,0,0,-6.4269,-6.4279,-6.4327,-6.4321,-6.4312,-6.4318,-6.4359,-6.4428,-6.4242,-6.4265,-6.4223,-6.4214,-6.4273,-6.4277,-6.4296,-6.4449,-6.445,-6.4276,-6.4281,-6.4284,-6.4287,0,0,0,0,0,0,0,-6.4265,-6.4277,-6.4408,-6.4328,-6.4319,-6.4275,-6.4274,-6.4371,-6.4311,-6.4263,-6.425,-6.4254,-6.4267,-6.429,-6.4295,-6.445,-6.4276,-6.4283,-6.4288,-6.4291,-6.4762,-6.4769,0,0,0,0,0,0,-6.4273,-6.4275,-6.4407,-6.4408,-6.4272,-6.4284,-6.4283,-6.4324,-6.4309,-6.43,-6.426,-6.4245,-6.428,-6.4287,-6.4295,-6.4522,-6.4284,-6.4291,-6.4296,-6.4754,-6.4763,-6.4772,0,0,0,0,0,0,-6.427,-6.4287,-6.4407,-6.4338,-6.435,-6.4295,-6.4342,-6.4328,-6.435,-6.4307,-6.4295,-6.4294,-6.4274,-6.4285,-6.4411,-6.452,-6.4295,-6.4302,-6.4745,-6.4757,-6.4768,-6.4978,0,0,0,0,0,0,-6.4265,-6.4286,-6.436,-6.4341,-6.4354,-6.4523,-6.4348,-6.4334,-6.4363,-6.4344,-6.4336,-6.4327,-6.4269,-6.44,-6.4419,-6.4526,-6.4308,-6.4734,-6.475,-6.4764,-6.4961,-6.4996,-6.5025,0,0,0,0,0,-6.4259,-6.442,-6.4365,-6.4382,-6.4445,-6.4529,-6.4537,-6.4467,-6.4373,-6.4446,-6.4419,-6.4327,-6.4506,-6.4415,-6.4434,-6.4546,-6.4727,-6.4746,-6.4763,-6.4947,-6.4989,-6.5024,0,0,0,0,0,0,-6.4454,-6.4416,-6.4354,-6.4513,-6.4526,-6.4499,-6.4589,-6.4514,-6.4554,-6.4534,-6.4446,-6.4446,-6.4586,-6.4578,-6.4478,-6.4733,-6.46,-6.4622,-6.4733,-6.4773,-6.4804,-6.4803,-6.4314,0,0,0,0,0,-6.4515,-6.4586,-6.4549,-6.4693,-6.4702,-6.4645,-6.4679,-6.4624,-6.4633,-6.4638,-6.4619,-6.4633,-6.4691,-6.4731,-6.4783,-6.4959,-6.4954,-6.5045,-6.5077,-6.5104,-6.5124,-6.5215,-6.5255,-6.4831,-6.4831,-6.483,0,0,-6.4643,-6.4631,-6.4681,-6.4731,-6.4734,-6.481,-6.4651,-6.4738,-6.4792,-6.4651,-6.4768,-6.4756,-6.4764,-6.4916,-6.4982,-6.4914,-6.524,-6.5127,-6.5148,-6.5154,-6.5237,-6.5278,-6.5313,-6.4843,-6.4841,-6.4839,0,0,-6.4913,-6.4912,-6.503,-6.5037,-6.5043,-6.5004,-6.5033,-6.5017,-6.5003,-6.5119,-6.5014,-6.5078,-6.5181,-6.5191,-6.521,-6.5484,-6.5401,-6.5503,-6.567,-6.576,-6.5793,-6.5823,-6.5919,-6.5955,-6.5524,-6.5524,-6.5525,0,-6.5071,-6.518,-6.5101,-6.5195,-6.5219,-6.5094,-6.5213,-6.5223,-6.5247,-6.5267,-6.5191,-6.5316,-6.5314,-6.5465,-6.5532,-6.5552,-6.5581,-6.5503,-6.5795,-6.5823,-6.5849,-6.594,-6.5977,-6.5536,-6.5535,-6.5534,-6.5533,0,-6.5373,-6.545,-6.5545,-6.557,-6.5605,-6.5712,-6.5649,-6.5695,-6.5637,-6.5606,-6.5725,-6.5718,-6.5765,-6.5797,-6.5741,-6.594,-6.5898,-6.581,-6.5674,-6.5903,-6.5987,-6.6021,-6.5554,-6.555,-6.5546,-6.5543,0,0,-6.5766,-6.5745,-6.5781,-6.579,-6.5788,-6.5846,-6.5946,-6.5991,-6.6032,-6.6053,-6.6134,-6.6223,-6.6141,-6.6163,-6.6107,-6.6187,-6.6402,-6.6088,-6.6087,-6.6146,-6.6619,-6.6684,-6.6726,-6.6347,-6.6354,-6.6359,-6.6618,0,-6.6028,-6.6197,-6.6129,-6.6304,-6.6373,-6.6255,-6.6342,-6.6351,-6.6325,-6.638,-6.6351,-6.6415,-6.6303,-6.6315,-6.6388,-6.636,-6.6496,-6.6341,-6.6421,-6.6425,-6.6421,-6.677,-6.6839,-6.7084,-6.665,-6.6656,-6.666,0,-6.6356,-6.6388,-6.657,-6.6554,-6.6581,-6.666,-6.6695,-6.675,-6.6757,-6.6732,-6.6756,-6.6683,-6.6779,-6.6645,-6.6777,-6.6673,-6.6702,-6.6694,-6.6701,-6.6705,-6.6555,-6.6782,-6.716,-6.7197,-6.6711,-6.6707,-6.6703,0,-6.6622,-6.6712,-6.6832,-6.6843,-6.6828,-6.6886,-6.6883,-6.6882,-6.6913,-6.6945,-6.6963,-6.7007,-6.703,-6.7065,-6.7005,-6.6912,-6.7145,-6.7005,-6.7126,-6.7128,-6.7179,-6.7177,-6.7567,-6.7201,-6.7201,-6.72,-6.7199,0,-6.6921,-6.7036,-6.6951,-6.7025,-6.715,-6.7071,-6.7198,-6.7181,-6.7182,-6.725,-6.7151,-6.7217,-6.7135,-6.7193,-6.7147,-6.7262,-6.7274,-6.7257,-6.7243,-6.7265,-6.7267,-6.7281,-6.7262,-6.721,-6.7208,-6.7206,-6.7204,0,-6.7239,-6.7187,-6.7309,-6.7284,-6.7281,-6.7375,-6.7353,-6.742,-6.7387,-6.7475,-6.7491,-6.7439,-6.7503,-6.7446,-6.7508,-6.7477,-6.763,-6.7592,-6.7627,-6.7616,-6.774,-6.7728,-6.8152,-6.8202,-6.7807,-6.781,-6.7814,0,-6.7432,-6.7518,-6.7502,-6.754,-6.7543,-6.7606,-6.7637,-6.7563,-6.7599,-6.7612,-6.7678,-6.7733,-6.7772,-6.7879,-6.7847,-6.7893,-6.7855,-6.8,-6.7861,-6.788,-6.7855,-6.785,-6.7858,-6.8028,-6.8033,-6.8037,-6.804,0,-6.778,-6.7749,-6.7797,-6.7837,-6.7876,-6.7904,-6.7924,-6.7961,-6.7884,-6.793,-6.7993,-6.8024,-6.8086,-6.8142,-6.8178,-6.8173,-6.8095,-6.8084,-6.8114,-6.8137,-6.8153,-6.8144,-6.7703,-6.8074,-6.8071,-6.8068,-6.8067,-6.8065,-6.804,-6.811,-6.8109,-6.8166,-6.8173,-6.8194,-6.8255,-6.8229,-6.828,-6.8324,-6.8278,-6.8354,-6.8358,-6.8397,-6.8403,-6.8462,-6.8401,-6.8445,-6.8456,-6.8467,-6.8484,-6.8145,-6.8468,-6.8467,-6.8466,-6.8465,-6.8465,0,-6.838,-6.8374,-6.8427,-6.8457,-6.8502,-6.8423,-6.8441,-6.8484,-6.8552,-6.8562,-6.8603,-6.8675,-6.8728,-6.8701,-6.8746,-6.8799,-6.8763,-6.8813,-6.8808,-6.8808,-6.8537,-6.8506,-6.8841,-6.8841,-6.8841,-6.884,-6.884,-6.884,-6.8563,-6.8677,-6.8647,-6.8763,-6.8755,-6.8829,-6.8846,-6.8864,-6.8871,-6.8956,-6.8999,-6.8981,-6.8975,-6.902,-6.9065,-6.9055,-6.9076,-6.9139,-6.9117,-6.8864,-6.8827,-6.8792,-6.8761,-6.9145,-6.9145,-6.9381,-6.9384,-6.9385]},{"header":{"parameterUnit":"m.s-1","parameterCategory":1,"la1":30.2991,"la2":30.254,"lo1":-89.0895,"lo2":-89.0444,"dy":0.0017,"dx":0.0017,"nx":28,"ny":28,"refTime":"2024-12-13T09:00:00:Z","depth":0,"parameterNumber":3,"parameterNumberName":"V-component_of_WINDS"},"data":[0,0,0,0,0,0,0,0,0,0,0,0,0,0,0,0,0,0,0,0,0,0,0,0,0,0,0,0,0,0,0,0,0,0,0,0,0,0,0,0,0,0,0,0,0,0,0,0,0,0,0,0,0,0,0,0,0,0,-1.4982,-1.4982,0,-1.5013,-1.5013,-1.5013,-1.5011,-1.5011,-1.501,-1.501,-1.5041,-1.5042,-1.5043,0,0,0,0,0,0,0,0,0,0,0,0,0,-1.4919,-1.492,-1.4982,-1.4982,-1.4983,-1.5013,-1.5013,-1.5013,-1.5011,-1.5011,-1.501,-1.501,-1.504,-1.5042,-1.5043,0,0,0,0,0,0,0,0,0,0,0,0,0,-1.4948,-1.4921,-1.4982,-1.4985,-1.4986,-1.5012,-1.5013,-1.5013,-1.5011,-1.5011,-1.501,-1.5009,-1.504,-1.5042,-1.5043,-1.5069,0,0,-1.5049,-1.505,0,0,0,0,0,0,0,0,-1.4946,-1.495,-1.4984,-1.4985,-1.4986,-1.5007,-1.5002,-1.5032,-1.5012,-1.5002,-1.501,-1.5009,-1.503,-1.5033,-1.504,-1.507,-1.5071,-1.5049,-1.505,-1.5051,-1.5052,0,0,0,0,0,0,0,-1.4944,-1.4949,-1.4994,-1.4985,-1.4986,-1.4984,-1.4988,-1.5008,-1.5019,-1.5002,-1.5002,-1.5006,-1.503,-1.5038,-1.5041,-1.5072,-1.5049,-1.5051,-1.5052,-1.5053,-1.5122,-1.5123,0,0,0,0,0,0,-1.4942,-1.4947,-1.4993,-1.4995,-1.4964,-1.4986,-1.499,-1.5001,-1.5019,-1.5021,-1.5007,-1.5006,-1.5035,-1.5039,-1.5042,-1.5071,-1.5051,-1.5053,-1.5054,-1.5121,-1.5122,-1.5123,0,0,0,0,0,0,-1.494,-1.4946,-1.4992,-1.4971,-1.4977,-1.4988,-1.5001,-1.5002,-1.501,-1.5022,-1.5024,-1.5013,-1.5035,-1.5039,-1.5061,-1.5072,-1.5054,-1.5056,-1.512,-1.5121,-1.5122,-1.513,0,0,0,0,0,0,-1.4939,-1.4945,-1.4956,-1.4971,-1.4978,-1.5012,-1.5001,-1.5003,-1.5013,-1.5012,-1.5028,-1.503,-1.5035,-1.5059,-1.5063,-1.5074,-1.5057,-1.5119,-1.5121,-1.5122,-1.5129,-1.5132,-1.5134,0,0,0,0,0,-1.4936,-1.4957,-1.4956,-1.4962,-1.4991,-1.5012,-1.5016,-1.5021,-1.5014,-1.5024,-1.5032,-1.503,-1.507,-1.5061,-1.5066,-1.5078,-1.5119,-1.512,-1.5122,-1.5128,-1.5131,-1.5134,0,0,0,0,0,0,-1.4942,-1.4959,-1.4958,-1.4985,-1.4997,-1.5012,-1.5025,-1.5024,-1.5038,-1.5037,-1.5042,-1.5046,-1.5068,-1.5075,-1.5065,-1.5102,-1.5094,-1.5096,-1.5096,-1.5099,-1.5101,-1.5099,-1.5059,0,0,0,0,0,-1.4947,-1.4963,-1.4977,-1.4998,-1.5004,-1.5013,-1.5023,-1.5025,-1.5038,-1.5043,-1.5053,-1.5065,-1.508,-1.509,-1.5105,-1.513,-1.5133,-1.5141,-1.5143,-1.5145,-1.5147,-1.5159,-1.5162,-1.5128,-1.5128,-1.5128,0,0,-1.4956,-1.4967,-1.4977,-1.5,-1.501,-1.5025,-1.5018,-1.5036,-1.5047,-1.5046,-1.5067,-1.5075,-1.5089,-1.5112,-1.5123,-1.5119,-1.5157,-1.5147,-1.5148,-1.5149,-1.5161,-1.5164,-1.5167,-1.5129,-1.5129,-1.5129,0,0,-1.498,-1.4991,-1.5009,-1.5019,-1.5034,-1.504,-1.5044,-1.5059,-1.5063,-1.5085,-1.5084,-1.5098,-1.5124,-1.5134,-1.5142,-1.5168,-1.5167,-1.5173,-1.5184,-1.5196,-1.5199,-1.5201,-1.5209,-1.5212,-1.5175,-1.5175,-1.5175,0,-1.499,-1.5014,-1.5019,-1.5036,-1.5046,-1.5045,-1.5063,-1.5073,-1.5092,-1.5098,-1.5093,-1.5125,-1.5135,-1.516,-1.5166,-1.5173,-1.5177,-1.5171,-1.5198,-1.5201,-1.5203,-1.5211,-1.5214,-1.5176,-1.5176,-1.5176,-1.5176,0,-1.5024,-1.5041,-1.5054,-1.5072,-1.5083,-1.5101,-1.5107,-1.5118,-1.5119,-1.5125,-1.5146,-1.5157,-1.5173,-1.5179,-1.5181,-1.5204,-1.5201,-1.5197,-1.5188,-1.5207,-1.5214,-1.5217,-1.5177,-1.5177,-1.5176,-1.5176,0,0,-1.5054,-1.5073,-1.5078,-1.5085,-1.5101,-1.5114,-1.5131,-1.5146,-1.5155,-1.5167,-1.5181,-1.5203,-1.5199,-1.5208,-1.5211,-1.5222,-1.524,-1.5216,-1.5217,-1.5219,-1.5264,-1.5266,-1.527,-1.5239,-1.524,-1.524,-1.5263,0,-1.5079,-1.5109,-1.5114,-1.514,-1.5155,-1.5154,-1.5169,-1.5179,-1.5185,-1.5198,-1.5204,-1.5218,-1.5213,-1.5218,-1.5229,-1.5236,-1.5249,-1.5234,-1.5251,-1.5251,-1.5247,-1.5274,-1.5276,-1.5297,-1.5266,-1.5266,-1.5266,0,-1.5113,-1.5126,-1.5154,-1.5166,-1.5172,-1.5185,-1.5199,-1.5212,-1.5223,-1.5227,-1.5236,-1.5237,-1.5254,-1.5245,-1.5267,-1.5257,-1.5264,-1.5268,-1.5269,-1.527,-1.526,-1.5274,-1.5303,-1.5306,-1.5271,-1.5271,-1.5271,0,-1.513,-1.5155,-1.5174,-1.518,-1.5195,-1.5204,-1.5211,-1.5222,-1.5231,-1.5243,-1.5248,-1.5262,-1.527,-1.528,-1.5285,-1.5278,-1.5306,-1.5298,-1.5308,-1.5308,-1.5314,-1.5313,-1.5343,-1.532,-1.532,-1.532,-1.532,0,-1.5157,-1.5174,-1.5182,-1.5193,-1.5212,-1.5216,-1.5234,-1.524,-1.5249,-1.5262,-1.5262,-1.5274,-1.5279,-1.5291,-1.5295,-1.5312,-1.5315,-1.5318,-1.5318,-1.5317,-1.5317,-1.5321,-1.532,-1.5321,-1.532,-1.532,-1.532,0,-1.5179,-1.5185,-1.5206,-1.5218,-1.5222,-1.5234,-1.5244,-1.5255,-1.526,-1.5276,-1.528,-1.5288,-1.5302,-1.5307,-1.5325,-1.5327,-1.5346,-1.5346,-1.5342,-1.5342,-1.5352,-1.535,-1.5385,-1.5389,-1.5364,-1.5364,-1.5364,0,-1.5196,-1.5209,-1.5222,-1.523,-1.5237,-1.525,-1.5259,-1.5263,-1.5272,-1.5285,-1.5294,-1.5308,-1.532,-1.5342,-1.5349,-1.5362,-1.5361,-1.5373,-1.5363,-1.5361,-1.536,-1.5359,-1.536,-1.5374,-1.5375,-1.5375,-1.5375,0,-1.5224,-1.5226,-1.5239,-1.5252,-1.5262,-1.5273,-1.5283,-1.529,-1.5295,-1.5305,-1.5319,-1.5328,-1.5345,-1.5359,-1.5372,-1.5378,-1.5377,-1.5378,-1.5381,-1.5379,-1.5376,-1.5377,-1.5346,-1.5377,-1.5377,-1.5377,-1.5376,-1.5376,-1.5243,-1.5254,-1.5264,-1.5278,-1.5286,-1.5295,-1.5306,-1.5312,-1.5324,-1.5338,-1.5339,-1.5354,-1.5364,-1.5381,-1.5388,-1.5399,-1.5396,-1.5401,-1.5402,-1.5403,-1.5403,-1.5375,-1.5402,-1.5402,-1.5402,-1.5402,-1.5402,0,-1.527,-1.5277,-1.5289,-1.5303,-1.5314,-1.5312,-1.5323,-1.5331,-1.5344,-1.5354,-1.5365,-1.538,-1.5393,-1.54,-1.5413,-1.542,-1.542,-1.5423,-1.5422,-1.5424,-1.5405,-1.5401,-1.5423,-1.5423,-1.5423,-1.5423,-1.5423,-1.5423,-1.5286,-1.5303,-1.5306,-1.5327,-1.5333,-1.5348,-1.5354,-1.5362,-1.5369,-1.5387,-1.5397,-1.5402,-1.541,-1.5423,-1.5434,-1.5436,-1.544,-1.5443,-1.5445,-1.5427,-1.5425,-1.5423,-1.5419,-1.5445,-1.5445,-1.5462,-1.5462,-1.5462]}]]